GFSNW_850_spd_126.txt.gz
Wind_Speed
22 25 29 30 29 31 33 11 4 18 20 4 2 3 4 6 4 4 3 4 3 3 2 0 2 3 3 2 2 5 2 3 6 12 14 3 1 4 3 3 4 4 3 4
21 25 27 27 29 32 20 9 9 15 12 3 1 2 3 3 3 3 3 3 3 1 2 1 3 3 3 9 5 1 3 2 5 9 4 4 6 6 7 8 4 2 4 3
20 21 23 23 29 27 16 10 3 4 7 1 3 5 4 4 6 4 6 4 4 3 1 3 3 3 2 14 3 4 2 3 6 5 8 5 13 11 12 4 3 6 4 5
17 20 21 22 26 24 11 3 3 6 4 3 4 3 3 5 4 4 5 3 3 3 3 3 3 2 4 4 5 3 2 4 3 9 13 5 13 18 18 10 12 4 7 8
17 19 20 21 22 20 4 5 5 5 5 15 6 2 2 5 3 4 2 5 4 5 4 5 3 2 1 3 3 2 1 3 2 5 6 5 9 14 16 15 14 5 7 8
17 18 19 19 19 15 3 7 10 8 2 3 4 3 5 5 7 6 6 4 3 4 5 4 11 15 12 8 1 2 1 2 2 4 5 7 3 9 8 8 16 7 9 4
18 18 17 18 16 11 7 12 8 6 1 3 4 5 5 7 3 6 3 4 1 2 15 16 8 9 11 9 8 12 2 1 2 4 4 2 2 10 7 6 12 12 10 4
16 17 17 16 13 10 11 14 6 4 3 5 6 8 6 10 8 4 4 2 4 9 6 3 3 3 3 3 3 1 8 2 3 2 3 2 3 7 6 5 8 11 11 13
15 17 15 15 14 12 12 11 7 6 10 1 8 6 7 4 3 2 1 1 3 6 3 3 1 1 2 1 5 4 4 2 3 3 3 1 2 13 16 6 2 16 15 12
13 14 16 15 14 12 11 11 9 7 9 6 8 4 5 7 5 3 1 4 4 7 2 2 1 1 1 1 2 3 3 2 3 4 2 3 9 19 13 1 4 13 13 11
13 13 17 15 15 12 11 12 10 7 7 10 8 8 8 8 4 3 2 3 3 3 3 1 0 1 1 1 1 1 2 3 2 3 2 2 18 4 4 6 6 10 15 15
13 12 17 16 15 14 11 12 10 11 7 8 9 8 8 5 6 6 3 3 2 2 3 1 1 1 2 1 1 3 1 1 2 1 1 5 8 7 7 8 9 11 11 13
12 13 18 16 14 13 11 10 9 10 9 8 6 5 4 5 4 4 4 3 3 3 3 4 1 1 3 1 1 0 1 4 1 2 3 4 5 6 7 8 8 7 11 9
13 13 18 16 14 12 11 10 10 8 8 5 3 8 9 8 7 6 7 11 7 4 3 2 2 1 2 1 1 2 0 2 1 1 4 6 5 6 7 6 7 7 9 10
16 15 17 16 15 13 13 10 9 8 4 4 7 8 7 6 7 7 8 6 3 1 1 2 1 1 1 0 1 1 3 2 1 2 2 1 2 4 6 6 6 6 7 9
18 15 15 16 15 14 11 4 4 4 5 4 3 3 4 5 11 6 5 5 4 2 2 1 2 1 1 2 1 4 6 6 3 3 3 3 2 4 7 5 3 4 6 7
19 15 13 14 15 14 5 4 7 9 6 4 3 3 4 11 12 7 4 4 2 1 1 1 2 1 2 1 2 6 9 7 6 3 4 3 1 2 6 3 1 4 7 8
19 17 15 13 14 12 9 7 12 10 6 4 3 1 4 8 4 3 4 4 3 2 0 1 2 1 1 1 3 11 9 9 6 3 3 4 4 3 3 1 2 5 7 9
20 17 15 15 15 7 9 9 11 7 3 4 2 3 3 9 4 4 3 2 1 1 1 2 3 1 4 3 10 12 10 6 8 5 4 5 4 4 3 3 5 6 8 9
20 18 4 6 9 17 12 5 3 2 2 2 1 3 2 6 3 1 3 2 0 0 3 3 2 2 5 5 9 10 7 6 9 7 5 4 3 1 3 5 6 7 7 7
16 4 4 20 19 4 3 3 2 2 2 4 3 8 2 5 3 3 3 2 2 1 2 2 2 3 6 12 12 9 6 4 5 7 6 6 4 2 1 3 5 6 7 8
5 12 18 14 3 4 4 1 1 1 2 6 5 6 6 5 4 5 3 2 1 2 4 1 3 2 11 17 13 9 5 3 4 5 5 4 3 1 1 3 5 7 8 10
23 6 5 2 1 4 4 4 2 2 4 8 7 3 7 4 3 5 2 3 3 1 0 3 3 10 16 18 14 10 7 5 5 5 5 5 5 5 6 6 8 9 8 9
3 3 3 3 2 3 4 2 2 2 1 11 14 5 4 3 3 3 4 3 1 2 2 5 3 19 22 18 14 10 8 7 7 8 9 9 9 9 9 9 10 9 7 8
3 2 2 3 2 3 4 5 2 2 2 8 6 5 3 2 3 1 3 2 3 5 4 3 10 21 24 21 16 12 9 10 10 11 12 12 11 10 10 9 8 7 7 7
2 3 2 1 1 3 3 3 6 6 3 6 2 3 3 1 4 3 5 3 5 4 3 5 16 24 23 19 15 11 11 12 14 15 14 14 13 11 10 10 9 9 10 9
2 2 3 2 3 3 4 4 1 4 6 2 3 3 5 3 2 3 4 5 4 5 7 10 18 23 23 19 15 14 16 17 17 17 16 15 14 12 10 9 9 7 6 6

GFSNW_850_spd_132.txt.gz
Wind_Speed
31 36 56 62 62 54 51 18 6 34 31 12 12 10 7 11 17 9 5 9 9 13 13 8 7 9 3 8 4 4 3 2 3 4 3 1 6 7 7 4 2 9 8 5
24 25 32 48 51 45 30 11 18 30 18 9 12 7 9 9 13 9 7 6 5 9 10 6 8 8 8 7 1 5 4 2 3 6 6 9 3 10 8 7 6 3 4 4
26 34 37 46 29 28 23 16 5 9 7 3 13 12 14 8 7 5 9 11 11 11 10 3 10 9 5 5 4 5 2 1 3 6 4 3 6 10 9 5 4 4 4 3
23 29 45 35 27 22 21 7 7 13 8 7 10 10 14 16 7 5 10 6 6 10 7 8 7 7 6 5 6 5 0 2 4 10 11 4 2 7 12 12 13 7 4 4
19 27 37 21 16 12 8 7 10 9 21 19 13 8 15 18 9 10 10 11 13 8 9 3 11 9 6 5 6 3 3 1 6 7 6 11 7 8 12 9 11 11 4 6
19 22 27 21 19 8 4 7 19 12 14 15 13 10 18 16 14 4 11 17 11 8 8 7 8 3 5 6 4 5 3 2 5 3 2 10 4 5 6 10 11 6 9 8
16 18 24 20 15 6 2 11 11 6 9 13 10 14 15 17 11 11 13 13 7 7 9 6 4 4 5 4 5 4 2 4 3 3 4 3 5 2 5 10 9 9 6 9
16 20 25 20 15 6 6 8 4 6 9 13 11 18 17 18 18 14 15 5 6 9 8 5 8 5 6 5 4 5 8 3 3 3 1 6 8 3 3 3 5 9 9 10
16 17 17 16 16 5 6 5 9 11 14 6 23 17 21 13 9 8 5 6 8 4 3 3 6 5 6 6 6 4 7 5 5 3 3 3 6 8 3 4 4 9 10 11
16 17 16 15 18 10 6 5 13 12 9 7 17 10 11 9 8 6 7 6 4 3 3 4 4 4 1 7 8 5 4 4 5 2 3 3 4 8 1 5 4 7 9 10
18 17 17 14 14 10 8 8 12 11 8 8 8 9 9 9 9 7 9 6 2 3 4 3 3 3 3 4 4 4 4 2 2 2 4 3 10 2 3 3 2 5 6 8
16 16 17 17 15 12 10 11 12 24 11 11 19 16 12 11 8 12 6 2 5 3 2 1 2 3 3 5 5 3 3 3 1 4 3 4 8 8 5 2 2 4 5 6
17 16 16 14 13 12 12 17 20 23 20 16 10 9 14 13 10 10 6 3 4 3 3 3 2 2 2 4 3 5 3 1 1 5 5 6 6 6 4 4 4 4 5 5
17 17 14 14 13 13 17 21 18 19 11 7 6 12 13 10 8 5 6 14 12 9 5 3 2 2 2 3 3 2 3 8 4 3 8 8 5 5 4 4 5 5 5 5
15 16 16 14 14 13 14 16 17 13 6 6 10 14 12 15 15 17 15 12 9 6 3 2 2 3 3 3 2 3 5 4 4 1 11 4 10 6 3 4 3 3 2 3
19 19 18 18 17 17 17 7 9 18 27 11 4 5 6 14 13 12 10 8 6 4 4 4 3 2 1 2 2 4 6 6 4 6 7 9 11 5 3 8 5 4 4 4
21 21 20 18 16 16 3 6 14 17 13 6 6 6 4 10 11 9 6 5 4 3 3 2 3 4 2 1 2 12 10 10 10 11 13 9 8 6 9 7 6 5 5 5
22 21 18 14 12 11 13 17 16 13 8 6 4 3 6 7 6 5 3 3 3 3 3 3 2 4 2 2 6 13 14 12 11 9 4 7 12 11 9 7 6 5 4 4
22 21 18 15 12 5 10 14 12 8 6 4 3 7 4 9 4 4 3 2 1 1 1 2 3 3 4 3 15 17 17 12 14 12 11 11 11 10 8 7 6 5 5 5
28 24 6 5 8 22 15 5 3 4 5 4 3 4 4 8 5 2 4 0 1 2 2 3 2 3 4 5 12 15 15 13 16 15 11 11 11 10 8 7 6 7 7 7
11 4 5 21 12 5 4 3 3 1 2 2 4 6 9 3 5 3 1 2 2 2 3 2 2 3 7 12 14 14 13 14 11 8 7 9 10 11 10 9 9 9 8 8
6 16 19 7 4 4 3 2 2 1 3 4 7 10 7 4 4 4 3 2 2 2 6 2 2 2 10 16 15 16 15 13 11 9 10 11 12 12 11 11 11 11 11 10
25 8 4 2 3 2 3 5 3 4 6 6 8 5 4 4 3 5 2 4 2 4 2 3 2 8 13 16 16 16 14 14 13 12 13 14 14 13 12 13 13 12 11 10
4 3 4 2 2 2 1 3 3 3 5 12 11 5 3 4 3 3 4 1 3 2 3 4 3 13 17 18 17 18 17 16 15 15 15 14 14 16 15 14 13 12 10 9
4 3 3 2 2 3 4 3 3 4 8 13 7 5 2 2 3 2 3 4 3 4 3 1 4 13 19 21 21 20 19 18 17 17 17 18 18 17 17 16 14 12 10 8
4 4 4 3 4 4 4 4 4 5 9 6 2 3 2 2 3 3 4 3 4 2 2 2 6 13 19 22 22 20 18 17 18 19 19 20 20 19 17 16 14 12 10 8
3 4 7 7 7 4 3 5 4 5 6 2 2 3 2 3 3 3 4 4 1 1 2 3 7 12 20 23 22 21 19 20 21 22 22 21 21 19 18 16 15 13 11 9

GFSNW_850_spd_135.txt.gz
Wind_Speed
24 33 48 66 80 70 56 22 5 41 46 11 11 11 12 8 19 19 7 8 8 15 18 14 13 12 8 11 8 5 4 3 5 2 6 1 3 4 4 3 8 8 11 4
27 41 43 59 61 48 36 13 19 38 31 8 13 12 11 12 19 15 11 8 7 15 15 9 10 12 10 12 8 6 6 4 4 7 8 11 1 3 9 9 11 14 6 4
22 32 44 27 19 21 30 13 6 13 12 6 17 17 16 15 16 6 7 7 11 16 15 6 13 14 9 11 6 1 1 4 4 3 1 2 4 4 8 9 7 4 4 3
20 26 31 22 16 14 10 6 7 13 9 10 20 16 16 19 14 9 11 8 14 15 10 10 11 14 12 8 7 8 5 5 5 5 4 5 0 2 5 4 10 5 3 4
17 23 24 22 16 12 10 7 14 19 27 22 17 16 19 20 11 13 13 11 14 12 11 5 16 13 13 8 12 10 5 4 4 4 3 12 4 2 2 2 3 5 2 7
12 24 12 17 9 15 8 16 17 20 19 16 12 14 21 20 14 2 10 14 13 10 9 4 16 10 9 8 11 9 6 3 3 3 7 10 5 3 3 5 6 6 5 6
25 18 10 18 9 12 7 21 14 18 12 15 16 17 18 16 12 11 13 17 10 10 15 14 11 8 7 7 5 4 5 4 1 1 11 5 4 5 4 8 4 5 4 4
14 14 21 15 7 4 5 17 5 15 12 19 19 23 17 19 14 18 20 11 11 17 15 9 9 6 6 7 9 8 4 3 3 3 3 6 6 6 6 7 5 2 3 5
12 11 9 8 5 5 4 2 8 11 12 15 20 18 23 14 14 13 10 10 12 13 6 6 8 6 10 7 7 6 7 3 4 5 8 4 7 3 3 4 5 2 3 6
16 15 16 17 8 3 5 2 10 8 14 12 23 14 18 19 14 8 13 9 7 8 7 7 7 4 6 9 10 8 7 4 7 6 5 6 5 5 9 4 4 3 5 5
14 15 14 13 10 4 3 3 11 11 18 14 11 13 14 13 13 9 18 8 4 8 8 7 3 2 6 4 7 8 7 7 5 5 5 5 4 7 4 4 5 3 4 5
15 14 14 13 13 7 4 3 13 18 12 14 16 17 14 9 5 15 20 2 19 7 5 2 3 3 3 7 6 3 4 3 1 4 3 6 8 10 6 4 4 3 3 4
16 15 13 13 13 8 7 12 18 24 28 21 12 12 12 11 11 13 8 5 5 4 1 3 2 3 4 4 5 6 3 2 3 5 4 7 7 8 7 5 5 3 3 4
17 15 13 13 11 11 12 12 18 16 13 8 9 8 10 9 7 6 5 13 8 9 6 3 2 2 4 2 2 2 2 9 6 4 6 6 6 6 6 5 5 3 4 5
18 16 14 13 12 13 11 15 18 16 4 10 14 15 12 12 13 14 13 11 10 9 4 2 2 3 2 2 1 4 7 4 6 2 13 2 13 8 6 5 3 2 1 2
14 18 14 13 14 16 10 5 8 19 25 17 4 8 8 10 11 11 11 9 6 4 4 4 2 1 4 3 3 4 6 6 7 6 11 8 13 7 4 7 4 3 2 3
18 19 17 16 15 15 6 5 16 20 15 8 7 6 4 8 8 8 7 5 4 3 4 2 4 5 2 1 2 11 10 9 13 15 16 11 10 6 8 7 5 4 3 3
20 18 16 13 11 8 9 19 17 13 7 5 4 4 5 5 5 5 2 3 3 3 1 3 3 5 2 2 8 14 13 13 12 12 3 11 13 11 10 7 5 4 2 1
19 17 14 12 7 4 7 13 13 10 5 4 3 7 4 8 4 5 3 1 2 2 1 3 2 3 3 4 13 16 16 13 13 11 11 13 13 12 9 8 6 5 4 4
22 15 5 4 4 21 13 5 2 4 5 4 4 8 4 11 7 3 3 2 1 2 2 4 2 2 6 6 12 16 16 11 16 16 14 13 12 11 10 9 7 7 7 6
13 4 4 14 13 5 3 3 2 3 3 3 4 10 9 6 4 3 1 2 1 3 3 2 3 3 9 11 14 15 15 15 14 10 9 11 11 12 12 10 9 9 9 8
6 13 15 6 3 2 3 2 2 1 3 4 8 11 8 5 4 4 3 2 3 1 6 2 3 4 13 17 17 16 16 16 13 10 11 11 13 13 12 12 11 11 11 9
16 6 4 4 5 3 1 4 2 4 5 6 10 6 5 5 4 4 1 4 2 6 2 3 1 11 16 17 17 17 16 15 13 12 12 14 16 15 15 17 16 13 12 10
4 3 4 2 2 2 1 3 5 5 7 14 14 6 3 4 2 2 3 1 3 3 3 3 4 14 16 17 17 18 18 19 18 18 18 18 18 18 16 14 14 14 13 11
4 3 3 2 3 5 4 4 6 5 11 8 11 5 4 3 3 2 3 3 4 4 2 3 7 14 17 18 19 19 21 22 20 17 18 18 18 18 18 18 16 15 13 12
4 4 5 4 7 6 5 6 8 7 12 7 4 3 2 2 3 3 4 3 3 2 2 5 8 13 17 20 22 22 20 20 19 18 19 19 20 20 19 19 18 16 14 13
3 3 6 8 10 7 4 4 3 9 5 3 2 3 2 3 3 4 3 2 2 3 5 5 5 10 16 19 21 21 19 20 19 19 20 21 21 21 20 20 18 17 15 14

GFSNW_850_spd_138.txt.gz
Wind_Speed
30 32 21 19 27 49 65 32 6 47 56 13 8 10 13 18 19 22 17 16 10 13 17 18 16 14 7 11 12 6 4 5 6 11 6 3 3 2 2 2 7 7 4 3
6 13 39 42 54 40 36 11 21 34 48 8 11 9 12 10 19 18 16 13 20 18 13 14 13 13 10 13 10 5 7 5 5 4 6 7 4 4 3 6 7 10 6 4
18 28 22 19 18 20 31 14 5 13 20 7 18 15 18 11 16 18 30 17 16 10 13 10 14 14 10 11 9 5 2 3 3 2 3 4 4 4 3 4 5 6 1 3
18 22 7 13 15 13 15 6 8 13 12 8 16 16 15 24 24 17 19 14 18 14 12 12 13 17 13 11 5 5 2 3 6 6 4 9 2 5 5 2 2 3 2 4
20 23 9 3 6 16 9 4 8 24 27 18 19 13 17 19 15 14 15 9 13 12 10 8 15 16 13 8 8 8 5 2 2 6 10 10 5 7 4 5 3 2 1 6
10 21 24 8 13 8 8 10 10 18 21 18 13 14 21 21 16 11 18 16 11 9 9 4 15 18 16 8 13 10 7 4 4 9 13 7 3 2 1 8 5 4 1 4
6 15 11 6 10 10 5 13 5 7 10 12 12 22 23 22 17 12 14 13 10 14 19 21 16 12 7 15 13 13 7 6 1 4 10 3 2 4 4 9 4 2 2 3
15 7 4 7 9 9 8 7 4 4 5 10 17 20 16 20 17 10 9 13 19 19 21 10 7 5 4 6 8 6 6 5 3 3 7 5 6 9 6 6 6 5 2 3
10 10 9 9 10 10 8 5 3 12 6 9 23 16 24 12 11 8 15 10 19 16 5 4 7 6 7 7 8 12 8 5 5 5 8 3 7 7 4 6 4 4 0 3
7 6 11 7 10 9 4 2 7 10 7 25 26 14 17 19 16 8 15 12 7 10 4 5 5 6 14 9 9 6 6 5 8 7 4 5 6 9 10 4 4 5 4 4
9 9 6 5 2 8 7 3 7 10 14 20 20 29 20 20 17 8 18 9 6 6 6 5 2 2 5 6 12 10 8 6 5 7 6 5 5 10 4 8 8 7 6 4
11 9 7 15 5 4 9 5 12 11 16 18 19 21 14 14 11 19 21 3 15 8 4 2 2 2 2 9 4 10 2 1 1 4 4 11 10 16 13 9 11 7 6 4
12 11 9 7 4 7 7 8 11 23 25 17 14 13 16 15 17 16 13 8 5 3 1 1 3 2 2 4 4 7 4 2 4 3 9 12 13 12 12 11 10 8 6 5
14 13 12 11 8 1 9 12 8 16 10 7 11 11 15 11 11 11 8 11 7 7 2 3 1 1 1 2 6 3 3 9 6 6 10 11 8 10 10 11 9 9 8 7
14 12 11 9 8 10 9 12 14 8 5 10 18 19 15 14 13 12 10 12 12 9 3 1 1 3 2 3 5 4 7 5 5 2 15 4 16 12 11 10 8 7 6 5
16 13 9 9 13 16 8 5 11 24 28 16 4 9 11 12 13 13 12 10 8 6 4 4 4 3 5 2 3 9 12 12 8 7 13 13 17 11 11 10 8 7 7 6
19 11 12 12 13 10 4 6 13 18 14 8 5 5 4 7 8 10 9 7 4 7 5 4 5 4 3 1 2 13 12 9 11 16 19 15 15 9 11 10 9 9 8 7
20 11 11 10 9 9 9 21 18 11 7 6 3 3 7 3 5 6 3 5 4 4 3 2 4 4 2 1 14 16 14 15 16 14 2 15 14 14 12 10 9 8 6 6
19 13 11 12 9 5 12 14 10 10 5 3 3 7 4 7 4 8 4 2 2 2 1 2 1 3 2 4 17 16 18 15 16 11 13 15 15 13 11 10 8 7 6 7
20 11 3 4 7 20 13 6 3 3 3 3 3 9 4 12 6 3 3 2 1 1 1 4 1 0 5 6 14 16 17 14 18 18 17 15 13 12 11 9 8 7 8 8
9 3 4 15 16 5 3 2 1 3 3 3 7 12 8 8 3 3 2 1 1 3 3 3 3 3 9 12 15 16 16 15 16 13 13 12 12 13 12 11 10 10 10 10
4 10 16 8 3 3 3 2 0 1 3 4 8 12 8 5 4 4 3 2 1 0 4 2 2 4 16 17 18 17 17 17 15 11 12 12 12 13 13 12 12 12 14 12
12 5 4 2 2 2 2 3 3 4 4 5 9 4 4 4 5 4 2 2 2 10 2 2 2 14 16 18 19 17 16 17 15 12 14 14 17 15 16 18 17 16 12 11
4 3 4 2 3 2 5 6 6 5 7 13 14 5 3 3 3 1 3 0 3 2 3 4 5 15 18 18 19 19 18 18 18 19 19 19 19 19 18 16 14 13 13 12
5 4 3 3 4 8 3 4 6 6 7 12 9 3 4 3 3 1 2 1 3 4 2 3 12 17 19 19 19 20 23 24 23 20 19 18 17 18 17 17 16 15 14 13
4 4 3 6 7 4 4 8 6 7 5 8 3 2 2 2 3 4 3 3 3 1 4 7 10 15 17 19 20 24 22 22 21 19 17 17 18 18 18 18 18 17 15 14
3 3 8 10 11 7 5 5 3 9 4 2 1 3 2 3 3 4 2 0 3 7 8 6 5 12 17 20 22 22 19 20 19 17 16 17 18 19 19 20 20 18 17 16

GFSNW_850_spd_141.txt.gz
Wind_Speed
16 18 24 22 19 16 31 37 8 36 63 15 14 16 25 19 23 29 12 9 13 3 14 11 10 9 5 12 12 6 1 2 3 6 7 4 4 5 4 4 1 1 3 2
10 13 8 2 13 31 37 30 7 54 69 15 12 7 15 20 20 15 12 8 10 18 7 5 7 6 4 18 6 4 5 2 2 3 4 3 2 5 5 4 3 4 3 3
9 4 1 2 6 16 18 9 5 14 36 19 17 17 14 17 23 18 18 13 5 6 5 2 6 5 2 14 8 6 2 1 5 6 4 3 5 6 6 4 2 2 3 4
13 6 2 4 3 17 3 1 4 11 12 5 15 20 15 21 11 13 20 3 6 5 5 7 6 6 7 6 5 4 2 2 3 3 7 4 3 6 7 3 3 2 4 5
15 13 12 2 2 6 5 2 6 11 20 9 13 17 14 22 19 12 16 8 11 10 6 14 15 11 5 5 3 5 2 2 3 6 4 9 4 4 10 6 4 6 5 3
10 18 17 9 3 7 1 3 6 15 18 10 10 14 12 18 13 10 20 11 9 14 10 8 10 14 18 8 8 7 6 3 2 3 11 6 2 4 4 7 5 2 3 3
7 12 16 7 9 8 9 4 9 4 6 10 10 16 12 13 6 4 5 6 5 8 20 24 24 17 9 14 11 10 6 4 2 4 6 3 3 1 6 9 4 3 5 1
5 10 10 11 9 9 9 14 5 2 5 12 12 15 9 12 9 5 2 1 16 21 18 8 6 3 2 6 11 8 3 4 2 3 1 3 6 6 6 5 5 6 5 2
8 8 3 7 8 10 9 9 4 3 4 10 11 14 21 9 8 5 7 23 28 15 4 3 4 4 5 5 5 5 2 3 3 1 3 5 1 10 14 9 2 7 6 5
7 7 6 3 8 8 6 5 14 4 4 16 22 8 20 15 9 4 5 6 5 7 3 2 4 5 9 7 8 6 4 2 3 2 1 2 6 12 15 4 5 14 13 9
6 5 9 8 11 8 6 2 13 11 7 16 21 20 21 9 18 5 13 6 1 3 3 5 4 3 6 4 6 7 4 4 3 3 2 4 14 11 5 8 16 15 11 7
9 8 15 8 13 9 9 5 12 13 12 20 19 16 14 15 27 21 19 10 8 9 3 2 1 1 3 5 3 5 3 4 4 2 3 9 16 16 24 20 19 15 13 9
10 7 9 12 6 4 8 9 24 34 31 24 22 15 15 14 24 19 11 9 9 5 3 1 1 2 3 3 2 4 3 7 5 5 7 14 17 17 19 15 15 13 11 10
11 9 9 8 5 5 8 12 10 7 10 5 11 15 15 14 20 19 10 19 10 9 4 2 2 2 4 2 4 4 4 5 6 6 15 20 17 16 16 17 16 14 13 12
11 12 13 17 6 5 10 10 14 8 11 6 19 23 16 13 15 15 12 12 9 5 3 3 1 2 4 3 4 2 2 6 4 4 21 10 20 16 14 15 14 12 11 10
11 15 20 7 7 7 8 6 17 28 30 10 4 11 16 16 17 16 13 11 8 4 4 2 3 3 3 3 3 5 16 14 13 8 23 19 22 19 16 14 14 13 13 10
12 17 9 8 8 6 3 6 12 17 14 7 4 3 5 9 14 14 11 10 10 8 4 2 3 3 4 2 3 12 19 20 25 26 27 24 23 23 18 16 17 15 13 12
15 14 10 11 9 10 15 13 11 12 10 7 3 2 3 6 6 4 5 4 6 7 3 3 3 2 3 3 17 22 22 23 23 18 8 22 23 20 17 16 15 11 12 13
13 14 12 13 11 8 11 12 13 12 8 5 4 4 3 6 6 5 5 5 3 5 2 2 1 0 1 12 22 23 27 17 21 13 18 21 22 22 20 19 16 16 13 10
13 13 4 4 7 17 13 4 3 6 5 6 3 5 2 10 5 3 3 3 2 1 2 2 2 1 2 19 24 26 22 20 23 24 21 22 23 23 21 20 17 15 12 13
13 3 4 17 14 5 4 3 3 2 3 4 4 15 7 6 4 2 3 2 0 2 3 3 1 2 5 21 25 24 20 19 22 14 18 18 20 21 20 18 16 15 16 17
6 10 15 9 3 4 4 1 3 3 3 2 7 11 7 6 4 4 2 2 2 1 1 3 2 3 18 26 25 24 21 20 20 13 15 15 15 18 20 20 19 19 16 15
11 6 4 2 4 4 4 3 1 2 2 3 8 3 5 4 4 4 3 3 3 9 2 3 3 12 19 27 26 24 22 22 20 17 18 19 19 19 20 19 18 16 15 13
5 4 4 2 3 3 3 3 2 4 5 18 16 5 3 3 3 2 4 3 2 1 1 4 3 18 23 26 24 25 22 22 20 17 19 20 21 20 18 15 14 14 14 14
5 5 3 3 4 6 6 5 5 7 8 14 8 5 4 1 3 1 3 3 2 3 3 0 14 21 23 23 22 23 22 21 20 20 20 19 19 18 17 17 16 15 15 15
5 6 4 6 8 3 6 6 5 5 7 7 3 2 3 1 3 2 4 4 3 1 2 8 15 19 19 20 21 21 21 21 21 21 19 19 18 17 18 18 18 17 16 16
4 4 10 8 11 6 6 5 4 6 4 2 2 3 3 3 2 1 1 2 1 13 12 8 10 15 16 17 16 17 19 19 21 20 20 19 19 19 20 21 19 18 18 16

GFSNW_850_spd_147.txt.gz
Wind_Speed
17 15 14 11 10 10 15 19 4 18 39 18 19 19 16 15 8 24 8 5 6 5 2 4 7 10 9 8 12 11 7 3 12 10 4 3 7 5 5 4 4 2 3 5
19 16 14 10 8 17 24 17 10 22 48 12 16 20 26 30 9 13 11 13 9 7 7 5 7 11 7 9 8 8 8 3 1 5 3 1 3 3 4 4 3 5 5 5
20 17 13 10 9 22 30 12 4 10 36 15 17 18 25 27 19 22 23 5 12 4 9 10 5 4 2 2 2 13 9 4 5 8 2 3 4 4 5 6 4 4 5 5
21 19 15 13 12 16 32 13 5 12 7 14 15 17 8 26 23 28 15 15 21 15 13 5 7 5 1 4 8 2 4 6 7 11 2 3 5 12 11 6 5 6 5 7
22 21 19 18 15 16 31 10 6 5 1 6 18 23 22 24 24 21 26 19 14 13 14 13 6 7 6 5 2 2 3 1 2 4 8 7 5 10 9 4 5 5 5 2
23 21 21 19 20 19 15 12 9 5 7 6 6 13 19 24 16 18 31 29 17 17 20 21 21 17 8 7 5 3 3 4 3 4 9 2 3 7 8 4 3 7 6 6
23 22 24 21 21 21 18 15 9 7 3 10 15 10 18 20 22 21 24 26 24 23 14 12 8 8 12 7 3 7 4 4 4 2 6 7 4 2 2 5 2 3 6 10
24 22 24 25 22 22 19 19 19 8 3 10 14 17 10 21 27 21 23 18 31 31 11 4 4 1 3 4 8 10 13 8 3 3 5 2 1 4 7 7 6 5 9 9
21 20 18 21 22 23 23 24 25 11 2 7 21 10 16 7 10 9 7 9 21 22 4 3 5 4 4 5 6 12 10 7 5 2 4 5 2 4 9 4 3 16 15 17
23 20 18 19 24 21 19 17 28 16 7 10 16 9 8 11 7 4 5 4 6 20 3 2 2 3 5 6 8 7 6 2 9 3 2 4 2 10 9 4 5 19 25 25
20 21 21 23 22 17 8 13 29 23 7 18 12 24 16 17 17 5 10 5 4 4 3 3 3 3 4 4 4 7 8 6 3 2 3 5 13 6 5 5 13 24 27 26
14 21 19 15 16 14 7 12 24 28 12 6 17 17 22 17 20 14 14 7 9 8 3 3 1 1 1 5 3 2 2 5 5 3 3 2 3 2 7 17 28 24 24 20
16 17 14 13 16 12 10 13 17 24 7 5 10 11 13 19 22 21 9 8 5 6 6 4 2 2 2 3 4 4 1 2 4 3 0 2 7 13 18 19 24 21 17 20
16 14 13 14 19 14 15 15 23 22 7 2 2 13 7 12 18 17 16 12 11 6 4 3 3 3 2 0 1 3 3 5 5 3 2 8 11 19 24 20 20 20 21 20
15 13 12 12 14 13 5 9 11 21 4 4 3 10 5 18 13 19 17 17 24 16 1 2 2 2 3 3 1 1 4 6 5 5 19 6 17 24 23 22 23 23 23 22
12 11 8 10 6 7 5 5 10 11 17 4 2 5 10 11 14 14 12 17 16 8 4 2 2 3 1 2 2 2 5 10 9 7 27 8 28 26 22 21 24 22 18 16
10 8 12 6 2 2 2 3 16 14 8 4 3 2 3 7 13 12 11 9 6 4 4 2 4 6 6 3 3 4 6 9 8 19 26 21 30 24 26 24 22 18 15 15
8 13 13 8 8 12 12 9 14 13 4 5 3 0 2 5 4 4 4 4 4 6 3 2 1 2 1 1 1 11 11 15 21 30 15 24 29 28 26 23 21 20 19 18
19 15 8 16 10 5 9 10 12 10 4 6 3 3 2 3 4 4 4 4 3 2 2 1 1 2 2 4 14 19 22 18 25 17 10 23 29 30 27 24 23 21 20 18
13 6 3 4 9 12 13 5 1 3 4 4 2 2 2 4 3 4 2 4 1 1 2 1 2 3 4 6 19 22 22 15 28 24 24 29 31 31 29 27 23 19 18 18
4 2 4 9 9 3 3 3 4 2 3 3 3 6 4 4 3 2 2 2 1 2 3 3 2 3 4 13 20 22 18 15 22 18 20 25 28 31 28 25 22 18 17 17
1 10 14 7 3 3 5 1 2 4 2 1 4 5 6 5 4 4 1 2 2 1 0 3 3 3 4 20 22 22 17 15 17 12 16 24 22 22 22 21 20 19 15 13
10 4 3 2 5 7 3 1 2 2 0 5 6 3 4 4 4 5 3 3 3 1 3 3 4 3 10 22 22 21 16 15 15 13 13 18 17 17 18 19 18 16 14 13
3 4 5 3 3 1 1 1 0 1 5 19 14 5 4 3 4 1 4 1 2 3 1 4 3 4 14 20 22 22 20 17 16 13 15 15 16 17 17 17 14 14 14 15
5 5 3 2 1 5 2 1 2 5 12 12 9 6 4 3 3 1 2 2 2 3 3 3 11 4 15 19 21 21 19 18 17 14 13 13 13 14 14 15 13 11 11 15
4 6 3 3 3 5 6 6 8 7 12 10 5 3 3 2 3 2 2 4 3 3 2 8 4 7 14 17 19 18 16 15 15 13 12 12 14 13 12 12 13 14 14 14
4 4 8 7 6 4 4 6 6 5 4 2 2 3 1 2 2 1 1 2 1 3 7 7 2 6 11 12 14 14 13 14 14 13 12 12 14 16 17 17 16 16 17 16

GFSNW_850_spd_153.txt.gz
Wind_Speed
31 27 22 22 22 25 28 19 2 17 22 7 6 6 3 3 3 4 2 1 3 4 3 3 6 8 6 6 2 2 6 3 8 11 14 12 11 8 8 9 7 6 7 7
32 27 24 23 23 31 30 19 5 21 24 5 7 6 8 3 0 2 2 3 6 2 3 5 7 6 5 7 3 4 2 1 5 7 6 14 10 16 8 3 6 17 6 4
34 28 26 24 28 32 21 10 3 7 19 10 10 11 12 10 8 12 12 9 4 4 10 6 8 7 4 5 7 13 5 8 12 13 4 1 4 17 13 6 5 3 11 2
35 30 26 26 30 33 26 9 5 9 7 13 12 8 5 10 9 13 13 3 15 12 6 8 17 15 7 9 14 8 7 15 11 18 15 12 13 8 11 14 12 7 5 8
37 34 30 27 28 32 30 10 6 9 4 18 18 18 12 18 9 6 6 15 11 11 18 21 8 8 7 9 3 2 2 8 7 18 16 15 16 19 14 15 16 12 12 17
37 34 30 28 28 36 16 25 14 9 9 6 11 13 16 8 13 12 27 20 13 14 25 25 25 25 26 18 13 12 4 4 3 9 6 5 9 15 18 16 18 17 16 11
36 32 32 30 30 38 18 18 13 7 4 8 10 7 20 19 22 20 19 18 18 29 20 12 19 19 18 23 20 20 7 8 4 5 2 7 2 3 8 16 8 7 3 8
38 35 34 31 30 33 31 13 17 9 3 10 13 14 9 13 19 21 25 30 38 22 6 3 4 4 5 12 13 14 12 10 4 4 8 8 5 4 5 7 9 10 9 11
37 36 34 30 29 31 28 26 19 8 3 7 23 12 14 8 8 9 14 19 16 13 4 4 5 4 4 4 1 7 7 9 8 5 5 5 2 2 4 2 8 15 17 19
36 35 32 29 29 28 28 25 24 19 6 17 7 5 4 6 3 4 5 3 9 16 5 5 5 5 2 6 7 6 4 3 13 11 5 5 4 4 7 5 4 14 19 27
35 33 31 27 28 30 28 26 23 20 10 21 13 13 21 19 9 3 2 3 3 5 6 4 3 3 6 4 4 6 9 6 3 2 1 7 8 6 5 1 5 13 19 23
33 31 27 25 26 27 28 27 23 24 19 12 9 17 29 29 22 11 8 4 5 9 3 3 2 3 3 6 4 4 5 6 4 8 5 1 8 0 5 6 12 15 21 24
31 27 24 24 26 24 27 24 18 16 16 19 26 33 25 24 24 24 11 8 5 6 5 5 1 3 3 5 5 5 4 4 3 2 3 2 5 4 7 6 15 21 23 28
26 24 23 25 24 23 24 29 24 19 5 4 11 14 15 23 23 24 21 17 13 9 7 2 2 3 6 3 1 4 2 9 6 4 2 2 9 11 12 12 17 21 22 22
23 22 22 23 23 21 23 22 23 22 14 3 4 8 16 17 18 19 25 23 16 9 4 2 3 2 3 1 1 3 7 6 5 4 10 6 7 22 18 20 23 24 26 23
22 19 18 22 19 21 19 10 27 28 24 7 2 6 3 11 13 14 17 21 13 3 3 2 2 3 1 2 3 4 10 10 10 3 6 7 8 23 23 24 25 24 21 22
20 16 17 19 20 18 22 8 7 11 24 5 3 3 5 10 10 10 8 12 5 6 4 6 3 4 3 1 3 3 8 10 9 6 14 9 22 16 24 23 23 22 21 21
17 16 16 15 15 19 20 31 13 19 19 6 2 1 3 6 5 3 7 7 8 4 3 2 2 5 1 3 6 4 6 8 10 17 9 5 20 25 25 24 25 25 24 24
15 13 14 13 12 8 9 15 20 22 6 5 3 3 2 6 3 4 4 5 2 4 2 2 3 2 3 5 8 13 15 12 15 13 6 14 24 29 27 27 27 26 25 24
16 12 7 6 8 8 15 9 14 13 6 5 1 3 2 6 4 2 2 2 1 2 1 1 2 3 7 7 7 9 16 13 19 18 14 20 26 30 29 29 27 24 22 22
12 5 2 9 18 5 4 4 6 4 2 4 4 3 3 4 2 2 2 2 0 1 1 1 1 2 4 15 8 8 17 13 17 12 6 13 22 30 29 28 24 21 19 18
6 6 10 3 3 3 3 1 1 1 2 3 4 4 5 3 3 3 1 2 1 1 1 0 2 2 15 12 3 11 12 12 14 6 5 10 16 23 24 24 23 19 16 15
13 4 3 3 3 4 2 4 1 2 2 5 6 3 3 4 3 5 2 2 1 1 1 1 1 9 18 6 6 12 10 9 9 7 7 10 15 19 19 20 18 17 15 13
2 2 3 2 3 2 1 1 1 0 2 9 10 5 3 3 3 1 3 1 1 1 1 1 3 14 15 2 8 10 9 8 7 6 8 12 14 16 15 14 15 16 16 14
3 4 3 2 1 1 1 1 1 3 8 6 8 6 3 2 3 1 2 2 1 0 1 2 12 15 7 1 7 8 8 8 6 5 10 13 13 14 15 14 14 13 13 13
4 6 2 4 2 3 4 5 9 5 5 6 4 3 3 2 2 2 2 2 1 1 2 9 13 10 5 2 6 7 6 6 5 7 9 10 11 11 12 13 14 13 13 12
4 4 7 4 2 2 4 6 5 6 3 2 2 4 2 1 2 2 1 2 2 3 6 9 11 8 7 6 6 7 7 7 7 6 7 8 9 10 11 11 11 12 12 12